Theta_e
317 319 318 321 324 326 327 329 328 328 329 321 318 318 320 322 321 323 322 321 322 320 320 319 320 320 319 320 319 320 320 319 321 318 323 335 327 320 331 333 334 337 337 345 343 335 332 333 334 336 340 340 341 341 340 341 341 341 340 340 340 339 339 337 336 334 336 337 338 339 338 337 337 337 337 337 336 336 336 336 336 336 337 338 339 339 338 339 339 338 337 335 334 334 332 330 329
322 325 322 324 324 326 329 327 324 323 323 317 316 317 318 321 322 322 321 320 321 320 320 319 319 320 320 320 319 320 320 321 321 319 327 330 324 325 330 328 332 336 337 345 343 336 332 334 335 335 338 340 341 340 340 340 340 340 339 339 338 337 338 337 335 335 337 338 339 339 339 339 338 338 336 337 337 336 336 336 335 335 337 338 339 339 339 338 338 337 336 335 333 333 331 329 328
322 325 324 326 325 326 328 326 325 321 318 315 315 320 320 321 321 321 321 320 321 320 320 320 320 320 320 320 319 320 320 321 321 319 327 328 328 328 327 324 330 336 337 344 344 336 332 334 336 336 337 339 341 339 340 340 340 340 338 337 336 336 337 337 336 336 338 339 339 339 339 339 339 338 337 337 337 336 336 335 335 335 337 338 338 339 339 338 337 336 334 334 333 332 330 329 329
319 324 324 325 327 328 330 328 327 320 316 315 314 320 322 321 321 321 320 321 322 321 320 320 321 320 320 320 320 320 319 320 320 319 325 328 330 330 327 323 329 337 337 344 345 338 333 333 336 336 337 339 340 339 339 339 339 340 338 337 336 336 336 337 337 337 339 339 339 338 338 339 339 339 338 338 337 337 336 336 336 337 337 337 338 338 338 337 336 335 333 333 332 331 330 330 331
322 326 323 323 328 327 328 325 323 319 316 317 315 319 321 320 321 320 321 321 321 321 320 320 320 320 320 320 320 319 319 320 320 318 324 328 330 328 325 322 329 337 338 343 345 340 335 333 335 336 337 338 339 339 339 339 339 339 339 337 336 336 336 337 337 338 338 338 339 338 338 338 339 339 338 338 338 337 336 336 336 337 337 338 338 338 337 336 335 334 333 331 331 330 330 330 328
325 326 321 322 326 324 324 321 320 319 319 322 318 319 321 319 320 320 321 321 321 321 319 320 320 320 320 320 320 320 320 319 321 322 324 328 326 324 323 322 328 337 339 341 344 341 337 335 335 336 337 337 338 338 338 338 338 338 338 337 336 336 335 336 337 337 337 337 338 339 339 338 338 339 338 338 338 336 336 336 336 336 337 337 337 336 336 334 333 332 331 330 329 329 328 326 321
325 327 325 323 324 321 322 320 320 320 320 323 319 319 319 318 321 320 321 321 321 320 319 320 319 319 320 320 320 320 320 318 323 325 322 322 321 322 322 322 327 336 340 339 343 342 340 338 336 336 337 338 339 339 338 338 338 337 337 337 337 336 335 335 336 337 337 337 338 339 339 339 338 339 338 338 337 336 335 335 336 336 336 336 336 335 334 333 332 330 330 329 328 327 324 318 309
323 328 326 324 326 325 323 322 323 322 320 321 320 319 319 319 321 320 321 320 321 321 320 320 319 320 320 320 320 320 321 319 321 321 318 317 318 319 320 324 328 332 339 339 341 342 341 341 338 336 337 338 340 339 339 338 337 337 337 337 336 336 336 336 336 337 337 337 338 339 339 339 339 339 338 337 336 336 334 334 334 334 334 334 334 334 333 332 330 329 328 327 327 324 317 307 301
322 326 325 323 326 325 324 324 324 322 322 321 319 319 319 319 320 320 320 321 321 321 320 320 319 320 320 319 320 321 322 320 318 316 316 315 316 316 317 328 331 330 338 338 339 342 341 341 340 338 337 338 340 340 339 338 337 337 338 338 337 337 338 337 337 337 337 339 339 339 339 339 339 339 338 336 336 335 334 333 333 333 333 333 332 332 332 330 328 328 327 326 324 319 308 300 299
323 323 324 326 325 322 321 322 322 322 322 321 319 319 319 319 320 320 320 320 321 321 320 320 319 319 320 319 320 323 322 318 317 317 316 315 315 315 316 326 332 332 336 338 339 341 341 341 340 339 338 337 339 339 339 339 338 338 339 339 338 338 338 338 338 337 337 338 339 339 340 339 339 339 337 336 335 334 334 333 332 332 331 332 331 330 329 328 327 327 326 325 320 310 302 299 299
327 323 323 325 322 319 318 318 321 322 321 320 319 320 320 319 320 319 320 320 320 320 320 319 319 318 319 318 321 323 320 318 320 321 318 316 314 316 320 324 331 334 335 337 339 340 340 340 340 339 338 338 338 339 339 339 339 338 339 339 338 338 337 337 337 338 337 337 338 339 339 339 339 338 337 336 335 334 333 333 332 331 330 331 329 328 327 327 326 326 326 322 312 303 299 299 299
330 327 324 323 320 320 319 318 320 323 322 320 320 319 319 319 319 319 319 319 318 318 319 320 319 318 318 318 321 321 320 321 323 322 317 315 314 317 325 327 329 334 336 336 337 339 339 338 339 339 339 338 337 338 339 339 340 339 339 339 339 338 337 336 337 337 337 336 338 338 339 339 339 338 337 336 334 334 332 331 330 328 329 329 327 326 325 326 325 325 325 318 306 300 298 299 299
329 329 326 323 323 323 321 319 320 323 323 321 320 319 318 318 318 318 317 317 317 318 318 319 318 318 318 318 320 322 322 322 321 320 315 316 318 316 324 330 330 333 336 336 336 336 337 337 337 337 338 338 338 339 339 339 339 339 338 338 338 337 336 336 336 337 337 337 337 338 338 338 339 337 336 335 333 333 331 330 327 326 327 327 325 325 324 325 324 325 323 313 303 299 298 299 299
327 327 326 325 325 324 322 321 321 322 320 320 319 318 318 317 318 318 317 317 317 318 318 317 317 317 317 318 320 324 325 321 318 316 315 316 320 318 321 331 331 332 335 336 335 334 335 336 335 335 335 336 337 339 340 340 339 339 337 336 337 336 335 335 336 337 337 337 338 338 338 338 338 336 335 334 333 332 330 329 326 325 326 326 325 324 324 324 323 324 320 309 301 298 298 299 299
325 327 325 325 324 322 323 323 323 321 320 320 318 318 317 317 318 318 317 317 317 318 318 317 317 318 318 318 320 324 323 319 316 314 315 315 317 319 320 328 330 330 334 335 335 334 335 336 336 334 332 331 335 339 339 339 339 338 336 335 335 335 334 334 336 337 337 337 338 338 338 338 337 336 335 333 332 331 329 328 325 323 325 325 324 324 323 323 323 322 317 307 300 298 298 298 298
323 326 325 324 323 321 322 324 324 321 321 320 318 317 317 318 318 318 318 317 318 318 318 318 317 317 318 317 318 322 321 317 316 315 316 316 315 319 320 323 327 329 331 334 335 334 335 335 337 336 333 330 332 337 339 339 338 337 335 334 333 333 334 334 336 337 337 338 338 338 338 337 336 335 334 332 332 331 329 328 325 321 323 325 323 323 323 323 323 320 316 308 299 298 298 298 298
322 324 325 324 324 322 322 324 323 319 320 320 319 318 317 318 318 318 318 317 317 317 317 317 317 317 317 317 317 319 320 318 317 317 319 320 318 320 322 322 325 327 327 329 332 333 334 334 336 336 335 332 331 336 338 338 337 336 334 333 332 332 333 334 336 336 337 338 337 337 337 336 335 334 333 331 331 330 329 327 326 321 321 324 323 323 323 322 322 319 317 310 298 298 298 297 298
322 324 324 323 324 322 322 322 321 320 319 319 318 319 318 318 318 318 318 317 317 317 317 317 317 318 317 317 318 318 320 319 318 319 320 322 322 323 324 324 324 326 325 326 327 331 333 333 334 335 336 334 333 334 336 336 336 335 334 333 332 332 333 334 335 336 337 337 337 337 336 335 334 333 332 331 330 329 328 327 327 323 319 323 324 322 322 322 321 319 318 310 297 298 298 298 298
323 325 324 323 324 323 322 321 320 321 320 319 318 318 318 317 317 317 317 317 317 317 317 317 317 317 318 317 318 318 319 319 318 319 320 321 323 323 324 326 325 325 325 326 324 326 330 331 333 334 336 335 335 334 335 335 335 335 334 333 332 332 333 334 335 336 337 337 337 337 335 334 333 333 331 330 329 328 328 327 327 324 318 320 323 322 322 321 319 319 318 309 297 298 298 298 299
322 324 323 323 323 322 321 320 320 320 319 319 318 318 317 317 318 317 318 318 318 317 317 317 317 317 317 317 316 317 318 319 319 319 319 319 320 321 321 323 326 326 326 326 324 324 327 330 331 332 334 335 335 335 334 335 335 334 334 333 332 332 333 335 335 336 337 336 336 336 335 333 332 331 330 329 328 327 327 326 326 324 317 317 322 321 321 320 319 319 317 306 297 297 297 298 298
322 322 322 322 322 320 319 318 319 320 320 319 319 318 317 317 317 317 318 318 317 317 317 316 316 316 316 317 316 315 316 317 318 319 319 319 318 318 319 319 321 324 325 326 326 325 325 326 328 330 332 334 335 335 334 334 334 334 333 333 333 333 334 335 336 336 336 336 335 334 334 333 331 330 329 328 327 326 326 325 324 323 317 316 320 321 319 318 318 317 313 301 296 297 296 298 298
321 321 321 321 320 319 318 318 320 320 319 319 319 318 317 317 317 318 318 317 317 316 317 317 316 317 317 317 316 315 316 317 317 317 317 318 318 318 318 318 317 319 322 326 328 328 326 325 326 329 331 333 334 334 334 334 333 333 333 333 333 333 334 334 335 335 336 335 334 334 333 332 331 329 328 327 327 326 325 324 323 321 316 315 320 321 318 316 316 315 308 298 297 296 296 298 298
321 320 320 320 319 318 317 318 320 320 319 319 319 318 317 317 316 317 317 317 317 317 317 317 317 317 317 317 317 316 318 319 317 315 316 316 316 317 317 318 318 317 319 323 326 328 328 327 325 327 329 332 333 333 334 334 333 333 333 333 333 333 333 332 333 333 333 334 334 333 332 330 330 329 328 327 327 325 325 323 323 319 314 315 319 321 317 313 313 311 304 299 297 296 296 297 298
321 321 320 319 317 316 317 318 319 320 318 318 319 319 317 317 317 316 316 316 316 317 317 317 316 316 316 317 317 318 318 318 317 315 317 316 316 317 317 317 318 318 318 319 322 326 328 328 326 326 327 330 332 333 333 333 333 333 332 332 332 332 332 332 332 332 331 332 333 332 331 329 329 329 328 327 326 325 324 323 321 318 313 315 319 320 317 313 312 309 302 299 297 296 297 297 298
319 320 319 319 318 317 318 318 319 318 317 318 318 318 317 317 317 316 316 316 315 316 316 316 316 315 316 317 317 318 318 318 317 316 317 317 317 317 317 317 317 317 317 318 319 323 326 328 327 326 326 327 330 332 333 333 333 332 332 331 331 331 331 331 331 331 330 331 331 330 330 329 329 328 328 327 326 324 323 322 320 315 313 317 319 318 317 315 313 310 304 299 297 297 297 298 298
317 317 317 317 317 317 316 316 316 316 316 317 318 317 316 317 316 316 316 315 316 316 316 316 316 316 316 316 316 316 317 318 316 315 316 316 317 317 317 317 317 317 316 317 318 320 323 325 327 327 326 326 328 330 332 332 332 332 331 331 331 331 331 331 331 330 330 330 330 330 329 329 328 328 327 326 325 324 322 321 318 315 314 318 317 315 316 317 314 310 305 299 297 297 297 297 297
316 316 316 315 316 315 315 315 314 315 315 315 317 316 316 316 316 315 315 315 316 316 316 317 316 316 316 315 315 315 316 316 315 315 316 316 316 317 317 317 317 317 316 316 317 318 321 322 324 326 326 326 327 329 330 331 331 331 331 330 330 331 331 331 331 330 330 329 329 329 329 329 328 328 327 326 325 323 321 319 318 316 315 317 316 314 314 316 313 309 303 299 297 297 297 297 297
315 315 315 314 315 314 314 314 314 315 315 316 316 315 315 315 315 315 315 315 316 316 316 316 317 317 317 316 316 317 317 315 314 315 316 316 315 316 316 316 317 317 317 316 316 317 318 320 322 324 325 326 326 327 329 330 331 331 331 330 330 330 330 330 330 330 330 329 329 329 329 329 328 327 326 325 324 322 320 319 318 317 316 316 316 314 313 313 311 307 303 299 297 297 297 297 297
314 314 314 314 314 314 315 315 315 315 315 316 315 315 315 315 316 316 316 316 316 317 316 316 316 316 316 316 315 317 316 315 315 314 315 315 315 315 315 314 315 315 316 316 317 317 317 318 320 322 324 325 326 326 327 329 329 330 330 330 329 329 330 330 329 329 329 329 329 329 329 328 327 326 325 325 324 322 320 319 318 317 317 317 316 315 313 311 309 306 302 299 298 297 297 297 297
314 313 313 314 314 315 316 316 317 316 315 315 314 315 317 316 317 317 317 317 316 316 316 315 315 315 316 316 316 318 317 315 314 313 313 313 312 312 312 311 312 312 313 312 314 316 316 317 318 320 322 324 325 325 326 327 328 329 329 329 329 329 329 329 328 328 329 329 328 328 328 327 327 326 325 325 323 321 320 318 317 317 316 316 315 314 312 309 306 303 301 299 298 297 298 298 297
314 314 315 316 316 316 318 318 317 316 314 314 314 315 316 316 316 317 318 317 316 315 315 314 314 315 315 316 317 318 317 313 310 310 310 309 309 310 310 310 310 310 310 310 311 313 315 316 316 318 320 322 324 324 325 326 327 327 328 329 328 328 328 328 328 328 328 328 327 327 327 327 326 326 325 324 323 321 319 318 316 316 315 314 313 312 310 308 305 302 300 299 298 298 298 298 297
314 315 317 318 318 317 319 319 317 316 314 313 314 315 315 315 316 316 316 316 315 314 314 313 314 315 315 316 317 316 313 309 308 308 307 307 307 308 308 308 308 308 308 308 309 310 313 315 315 317 318 319 321 323 324 324 326 326 326 328 328 328 328 328 328 328 328 328 327 326 326 326 325 325 325 324 323 321 319 317 316 315 313 312 312 310 309 307 304 301 300 298 298 298 298 298 297
317 317 317 319 319 318 319 319 317 316 314 313 314 315 316 315 316 315 315 315 314 314 314 314 315 315 316 316 315 313 309 307 307 306 305 305 305 306 306 306 306 306 306 307 308 309 310 312 314 317 317 317 319 321 322 323 324 325 325 326 327 327 328 328 328 327 327 327 327 326 325 325 324 324 324 323 322 320 319 317 315 314 312 311 310 309 308 306 304 301 300 298 297 298 298 297 296
320 320 319 320 319 318 319 319 318 316 315 314 314 314 314 314 314 314 314 314 314 314 314 314 315 316 317 316 312 308 307 306 305 304 304 304 304 304 304 304 304 304 305 306 306 307 309 310 312 315 316 316 317 319 321 321 322 323 324 324 325 325 326 326 326 326 326 326 326 325 324 324 324 323 323 322 321 320 318 316 315 313 312 311 309 308 307 305 303 301 300 298 297 297 297 297 296
320 320 318 319 319 318 318 319 318 317 316 316 315 314 314 314 314 314 314 314 314 314 314 315 316 316 315 312 309 307 306 305 304 304 303 303 303 303 303 303 303 303 304 304 305 306 307 308 310 312 313 313 315 317 319 320 321 321 322 322 323 323 324 325 325 325 325 325 324 323 323 322 322 322 322 321 320 319 318 316 314 313 311 310 309 307 305 304 303 301 299 298 297 297 297 297 297
318 319 318 318 318 318 318 318 319 318 317 317 316 316 315 315 315 315 314 314 314 315 315 316 317 315 312 309 308 307 305 305 304 304 303 302 302 302 302 302 302 302 303 303 304 305 305 307 308 310 311 311 313 315 317 318 319 320 320 320 321 321 321 322 322 323 323 323 323 322 321 320 320 321 321 321 319 318 317 315 314 312 310 309 308 306 305 304 302 300 299 297 297 297 297 297 297
318 319 319 319 318 318 318 318 319 317 317 316 317 317 315 315 315 314 314 314 315 315 316 316 314 311 309 308 308 306 305 305 304 303 303 302 301 301 301 301 301 301 302 302 303 304 304 306 307 308 309 310 311 312 315 317 317 318 318 318 319 319 319 319 320 320 321 320 320 319 319 319 318 319 319 319 319 318 317 315 313 311 309 308 307 306 304 303 302 300 299 297 297 297 298 297 297
318 319 319 319 319 319 317 319 318 316 316 316 316 316 315 314 314 314 314 315 316 316 315 314 311 309 309 308 307 306 305 305 303 302 302 301 301 300 300 300 300 300 301 301 302 302 303 304 305 306 306 307 308 309 311 313 315 316 316 316 317 317 317 317 317 317 318 318 317 317 317 317 316 317 317 318 318 317 316 315 313 311 309 307 307 305 303 302 301 300 299 298 297 297 298 297 297
319 320 320 321 320 319 319 318 317 315 315 316 316 315 315 314 314 314 314 315 316 315 313 311 309 309 308 307 306 305 305 304 303 302 301 301 300 300 300 300 300 300 300 300 300 301 301 303 303 304 304 305 306 307 308 310 312 313 314 314 314 314 314 314 315 315 315 315 315 315 314 314 314 314 315 315 316 316 316 315 313 312 310 308 307 305 303 302 300 299 298 298 297 297 297 297 297
320 320 320 321 320 320 320 318 316 315 314 316 315 315 314 314 314 314 315 316 314 311 310 310 309 308 307 307 306 305 304 303 302 301 301 300 299 299 299 299 299 299 299 299 299 299 300 301 301 302 303 303 304 305 306 308 309 310 310 311 311 311 311 311 311 311 311 312 312 312 312 311 312 312 312 312 313 314 314 314 313 312 310 308 307 305 303 301 300 299 298 298 297 297 298 297 297
321 322 321 320 319 320 320 318 317 315 316 316 315 317 317 315 316 317 318 318 313 310 310 309 309 309 307 307 306 305 304 302 301 301 300 299 299 299 298 299 299 299 299 299 299 298 299 299 300 300 301 302 303 304 305 306 307 307 308 308 308 308 308 309 308 308 308 308 309 309 308 308 309 309 310 310 310 311 312 313 312 311 309 307 306 305 304 302 301 299 298 298 297 297 297 297 298
321 323 323 320 318 319 319 319 318 318 320 317 316 322 323 319 320 319 319 318 312 309 310 308 308 308 306 306 305 305 304 302 301 300 299 299 298 298 298 298 298 298 298 298 299 298 298 298 298 299 299 301 302 302 303 304 305 305 306 306 306 306 307 307 307 307 307 307 306 306 306 306 306 306 307 307 308 308 309 310 310 309 308 306 305 304 304 302 300 299 298 298 297 297 297 297 298
320 323 322 319 317 319 319 318 319 320 321 316 315 322 322 319 319 318 319 318 312 309 310 308 307 306 305 305 304 304 303 302 301 300 299 299 298 298 297 297 297 297 297 298 298 298 298 298 298 298 298 299 300 301 302 303 303 304 304 304 305 305 305 305 305 305 305 305 305 305 304 304 304 304 304 305 305 306 306 307 308 308 307 305 304 303 303 301 300 299 298 298 297 297 296 296 297
322 322 320 317 315 318 319 318 320 321 319 317 316 320 321 319 318 317 319 319 313 309 309 308 307 305 304 304 304 303 302 301 301 300 299 298 298 297 297 297 297 297 297 297 297 297 297 297 297 297 297 297 298 299 300 301 302 302 302 303 303 303 303 304 304 304 304 304 303 303 303 303 302 302 302 302 303 304 304 305 305 306 305 304 303 302 302 301 300 298 298 297 297 297 296 295 296
322 320 317 316 315 316 318 318 320 319 318 320 320 319 322 322 319 318 319 317 314 310 309 308 306 305 304 303 303 302 302 301 301 300 299 298 297 297 297 296 296 296 296 296 296 296 296 297 297 297 297 297 297 297 298 299 299 300 300 301 301 301 302 302 303 303 303 303 303 303 302 302 301 301 301 301 301 301 302 302 303 303 304 304 303 301 301 300 299 298 298 297 297 296 296 296 295
319 317 316 317 317 318 318 319 319 318 318 320 321 320 322 323 320 319 320 318 313 310 309 308 306 305 304 303 303 302 301 301 300 299 298 297 297 297 296 296 295 295 295 295 295 295 295 295 296 296 296 296 296 296 296 297 297 298 298 299 299 300 300 301 301 301 302 302 302 302 302 302 302 301 300 300 300 300 300 300 301 301 302 302 302 302 301 300 299 298 297 297 297 296 296 296 296
316 316 316 318 320 319 319 319 317 318 321 321 321 319 320 325 326 320 318 318 314 310 309 307 305 304 303 302 302 301 301 301 300 299 297 297 297 296 296 296 295 295 294 294 294 293 294 294 294 295 295 295 295 295 295 295 296 296 296 297 297 298 298 299 299 300 300 300 300 301 301 301 301 301 300 300 299 299 299 299 299 299 300 300 301 301 301 300 299 298 297 297 297 297 296 296 296
315 316 316 318 322 319 318 319 318 320 324 324 322 320 319 324 327 318 314 315 313 311 309 306 304 303 302 302 301 301 300 300 299 299 298 297 296 296 296 295 295 294 294 294 293 293 293 293 293 293 293 294 294 294 294 294 294 294 294 295 295 296 297 297 297 298 298 298 299 299 300 300 300 300 300 300 299 299 299 299 299 298 299 299 299 299 300 300 299 298 297 297 297 297 296 296 296
315 315 314 318 323 322 322 323 322 323 325 323 323 323 321 321 321 316 314 312 311 311 308 306 304 302 301 300 300 301 300 299 299 299 298 297 296 296 295 295 294 294 294 294 293 292 292 292 292 292 292 293 293 293 293 293 292 293 293 293 294 294 295 295 295 295 296 296 297 298 298 298 299 299 299 299 299 299 299 299 298 298 298 298 298 298 298 299 299 298 298 297 296 296 296 296 295
313 316 319 322 323 323 324 325 324 325 324 321 320 322 323 321 318 317 313 308 307 307 306 305 303 301 300 300 300 300 299 299 298 297 297 296 295 295 295 295 294 294 294 294 293 292 292 291 291 291 291 291 292 292 292 292 292 291 291 292 292 292 293 293 293 294 294 294 295 296 296 297 297 297 297 298 298 298 299 299 298 298 297 297 297 297 297 298 298 298 298 297 296 296 296 296 295
314 316 322 325 323 323 323 323 324 326 325 321 319 321 324 321 315 312 308 305 305 303 303 302 301 301 300 299 299 299 298 298 298 297 296 295 294 295 294 294 294 294 294 293 293 292 291 291 291 290 290 290 291 291 291 291 291 290 290 290 290 290 291 292 292 292 292 293 293 293 294 294 295 295 296 296 296 297 298 298 298 297 297 296 297 297 297 297 297 297 297 297 297 296 296 296 296
319 317 320 323 323 322 322 323 323 324 325 323 321 324 324 317 311 307 306 305 303 302 302 301 300 300 300 299 298 298 297 297 297 296 295 294 294 294 294 294 294 294 293 293 292 292 291 290 290 289 289 289 289 290 290 290 290 289 289 289 288 289 289 289 290 290 291 291 292 292 292 292 293 293 294 294 295 295 296 297 297 296 296 296 296 296 296 296 296 296 296 296 296 296 295 295 295
320 320 322 321 319 319 322 324 322 321 324 322 320 322 320 315 312 307 305 305 303 303 301 300 300 299 299 299 298 298 297 297 296 296 295 293 293 294 294 293 293 293 293 292 291 291 290 290 289 288 288 288 288 288 288 289 289 288 288 288 287 287 287 287 288 288 288 289 289 290 291 292 292 292 292 292 293 293 294 295 295 295 295 295 295 295 295 295 295 296 296 296 296 296 295 295 295
319 321 320 317 318 320 320 321 321 322 323 321 319 320 318 317 316 309 306 305 303 302 301 300 300 299 298 298 298 297 297 296 296 295 294 293 293 293 293 293 293 293 293 292 291 291 290 289 288 288 287 287 287 287 287 287 288 288 287 287 287 286 286 286 286 286 286 287 287 287 288 289 290 291 291 292 292 292 292 293 294 294 294 294 294 294 294 294 295 295 295 295 295 295 295 295 295
317 317 316 316 321 322 320 320 321 322 322 320 319 319 317 318 317 312 309 307 303 302 302 300 299 298 298 298 297 297 296 296 296 295 295 294 293 293 293 293 293 293 293 292 292 291 290 290 289 288 288 288 287 287 287 287 287 287 287 286 286 286 286 286 285 285 286 286 286 285 286 286 287 288 289 290 291 291 291 292 292 292 293 293 294 294 294 294 294 294 294 294 294 294 294 294 294
315 314 314 317 319 319 319 320 320 321 320 320 319 318 318 317 314 312 310 306 304 303 302 300 299 298 298 298 298 296 296 296 295 295 294 293 293 293 293 293 293 293 293 292 291 290 290 289 289 289 288 288 287 287 288 288 288 287 287 287 286 286 286 286 285 285 285 285 285 285 285 285 285 285 286 287 288 289 290 291 291 291 291 292 293 293 293 293 293 293 294 294 294 294 294 294 294
317 316 315 316 317 318 318 318 319 319 318 320 319 318 320 315 309 309 309 306 305 303 301 300 299 298 298 298 298 297 296 296 295 295 294 293 292 292 292 292 293 292 292 292 291 290 289 288 288 288 288 287 287 287 287 288 288 287 287 287 287 287 287 286 286 286 285 285 285 285 285 285 285 285 285 285 285 286 287 289 290 291 291 291 291 292 292 293 293 293 293 293 293 293 293 293 293
316 316 315 316 316 317 318 317 317 318 317 318 318 319 320 312 306 307 307 305 305 302 300 300 298 298 298 297 297 297 296 295 294 294 293 292 292 292 292 292 292 291 291 291 291 290 289 289 288 288 288 287 287 287 287 287 287 287 287 287 287 287 287 287 287 286 286 285 285 285 285 285 285 285 285 285 285 285 285 286 287 288 289 290 290 291 291 292 292 292 292 292 292 292 293 293 293
Wind_Speed
4 5 6 6 8 9 8 3 1 1 2 4 2 4 2 2 0 2 6 5 2 3 3 2 3 2 3 3 3 5 4 3 3 2 1 4 6 8 9 10 10 11 14 14 13 21 26 24 24 21 20 19 18 17 17 16 15 14 13 13 13 12 11 10 11 11 11 10 9 8 7 7 7 6 6 5 5 4 5 5 5 6 5 4 5 5 6 6 6 5 4 1 2 2 3 2 3
3 5 6 6 7 6 3 1 1 3 2 1 2 4 0 0 2 4 7 5 3 3 3 2 3 2 3 4 4 5 4 4 3 2 2 8 9 8 8 9 10 12 15 14 13 21 27 26 24 23 21 20 19 18 17 16 16 15 14 14 13 12 11 11 11 11 10 9 8 8 7 7 7 7 6 6 5 5 5 4 5 6 5 4 5 5 6 6 5 4 3 1 2 2 1 1 2
1 3 6 6 6 4 2 1 1 4 3 1 3 3 1 2 4 5 5 5 4 3 2 2 1 1 3 4 3 2 3 2 2 4 4 9 6 6 7 7 11 11 15 14 13 21 27 27 25 24 22 22 21 19 18 17 16 15 14 14 13 12 12 12 11 11 10 10 9 8 8 8 8 7 7 7 6 5 5 5 5 6 6 5 5 5 5 5 4 3 2 2 2 2 1 2 3
1 1 5 6 3 3 2 1 2 3 4 2 3 3 4 3 4 5 4 4 4 2 2 2 0 1 2 2 3 2 3 2 6 5 2 6 3 4 4 6 12 11 15 13 11 19 26 28 27 25 23 23 22 21 20 18 17 15 14 14 14 13 13 12 11 11 11 10 10 9 9 9 9 8 7 7 7 6 6 5 7 7 6 6 5 5 5 5 4 2 1 2 2 1 3 5 6
4 2 5 5 2 0 1 1 2 2 2 2 2 2 4 4 5 5 4 2 5 4 1 2 1 1 1 2 2 2 1 3 4 4 3 6 5 4 1 6 13 11 15 14 10 17 24 28 28 26 25 24 23 22 21 20 18 16 15 15 15 14 14 13 12 12 11 11 11 10 10 10 10 9 8 8 8 7 7 6 7 8 7 7 6 6 5 4 3 2 1 0 1 0 4 6 7
5 4 5 3 1 1 1 2 3 2 1 3 2 3 5 5 6 6 5 3 6 5 2 1 2 2 2 2 2 2 2 2 0 3 4 5 5 4 1 5 13 11 14 15 11 15 21 25 27 27 25 25 24 23 22 21 20 18 17 16 15 15 14 14 12 12 11 11 11 10 10 10 10 10 10 9 8 8 7 6 6 7 7 7 6 5 4 3 2 1 1 1 0 2 4 6 7
7 4 3 2 1 1 1 3 4 2 1 3 2 3 5 5 6 5 5 4 2 4 2 1 2 3 4 1 2 4 1 3 2 3 3 3 4 4 1 4 13 12 12 15 13 13 18 21 25 27 26 25 25 24 24 23 22 20 18 17 16 16 15 14 13 12 12 12 11 11 12 11 11 11 11 10 9 9 8 8 7 6 6 6 6 5 3 2 1 1 1 1 1 2 5 6 5
6 2 0 1 1 1 2 4 5 2 0 3 3 1 3 4 4 3 4 3 1 2 2 2 3 2 3 0 2 2 6 6 5 4 2 1 2 3 2 5 12 12 12 15 14 14 16 19 22 25 26 26 24 24 24 23 23 21 19 18 17 16 15 15 14 14 13 12 12 13 13 12 12 11 12 13 11 10 9 9 9 7 5 5 6 5 4 3 2 2 2 1 2 3 5 5 3
4 2 1 1 1 1 2 4 4 2 1 4 3 1 2 3 3 2 4 4 1 1 1 4 4 1 3 4 3 4 7 7 7 4 2 1 2 3 3 7 11 12 13 14 15 16 16 18 20 22 24 26 25 24 24 23 23 22 20 19 18 17 16 16 15 15 14 14 13 13 13 13 12 12 14 14 12 12 10 9 9 7 6 6 7 6 5 4 3 2 2 2 3 5 5 3 2
3 2 1 1 2 2 4 3 0 1 1 3 2 2 5 4 4 1 3 4 1 0 1 5 3 3 3 5 4 3 7 8 7 4 3 2 1 2 5 9 11 12 14 15 16 17 16 17 19 21 22 25 26 25 24 23 23 23 21 20 20 19 18 18 16 16 15 15 15 14 14 13 13 13 13 13 12 12 11 11 9 9 7 7 8 6 5 4 3 3 2 3 6 5 3 1 3
1 2 1 1 2 3 3 3 4 3 3 2 2 6 6 3 3 3 3 3 1 2 2 5 2 2 4 5 3 3 9 8 7 6 4 3 2 3 5 9 12 13 14 16 17 16 16 17 18 20 21 24 26 26 25 24 24 23 22 21 20 20 20 19 18 17 17 17 16 16 15 15 15 14 13 13 13 12 12 12 10 10 9 8 8 5 5 5 4 3 3 6 5 3 1 1 3
1 2 1 1 3 4 3 5 4 5 6 4 3 7 3 2 1 4 3 4 4 6 2 4 1 1 3 4 2 5 9 7 7 7 4 4 3 4 6 8 12 14 14 17 18 17 16 17 20 21 21 23 26 28 26 25 25 24 23 22 21 21 20 20 20 19 18 18 18 18 16 16 15 14 14 13 13 12 12 11 10 10 9 8 7 6 7 6 5 4 5 7 4 1 1 2 4
2 2 1 3 3 4 4 4 4 4 5 2 4 4 0 1 1 4 5 5 6 6 3 4 3 2 3 6 1 6 6 4 7 6 5 4 3 4 7 8 10 13 14 17 19 19 17 17 20 22 23 23 26 29 28 27 26 25 24 24 22 22 21 21 21 20 20 19 19 19 18 17 16 15 16 14 13 13 12 11 10 9 9 8 7 7 7 7 6 5 7 7 3 2 2 2 3
2 3 2 3 3 5 3 4 4 3 3 3 4 3 2 1 1 3 4 6 7 2 1 1 2 3 2 5 1 3 5 7 8 6 6 6 5 5 7 9 10 12 14 16 18 18 18 17 18 21 24 24 26 29 29 28 27 26 26 25 24 23 22 21 21 21 20 20 20 19 18 17 17 16 16 15 14 14 13 12 10 9 11 9 9 8 8 8 7 7 8 7 4 3 3 2 3
2 3 1 2 4 5 3 4 3 3 2 4 2 2 1 3 2 1 3 5 5 2 0 3 3 1 3 3 2 2 7 10 8 6 5 6 6 6 8 10 11 12 14 15 16 17 19 18 17 19 22 24 28 31 31 30 28 28 27 26 25 24 23 22 21 21 21 20 20 20 19 19 18 16 16 16 15 15 14 12 10 10 12 10 10 10 9 9 8 10 9 6 4 4 4 3 3
1 3 1 2 3 5 2 2 1 1 1 4 3 2 1 3 2 2 2 2 5 4 3 2 4 4 5 6 7 2 6 9 7 6 5 5 6 6 8 10 12 13 15 17 17 18 19 19 19 19 20 22 27 31 32 31 30 29 28 27 26 25 25 23 21 21 21 20 20 20 21 20 19 18 18 17 17 16 15 14 12 11 13 12 12 12 11 10 10 11 9 6 6 5 4 3 3
1 1 1 2 4 5 2 1 1 1 3 2 4 3 1 3 1 1 3 2 5 8 6 6 6 6 7 11 14 9 6 9 7 6 5 6 7 7 10 11 12 13 16 19 19 19 20 21 21 20 20 21 24 30 30 30 30 30 28 27 26 26 25 23 22 21 21 21 21 21 21 20 20 20 19 18 19 18 17 16 15 13 13 14 14 13 12 11 12 11 9 8 7 6 4 3 3
0 0 2 3 4 4 3 4 4 3 5 4 2 2 4 4 2 1 2 3 5 9 9 9 9 10 14 19 21 15 9 10 9 9 9 9 9 10 12 13 15 15 17 19 21 21 22 23 24 22 22 22 23 27 29 28 27 28 28 28 28 27 26 24 23 23 23 23 22 22 22 21 21 21 20 20 20 19 19 18 17 15 14 15 16 14 13 13 12 11 10 9 8 6 5 4 2
2 2 3 4 4 5 6 7 6 5 5 7 7 6 6 6 6 2 2 6 6 8 10 8 10 10 13 17 21 19 14 13 13 12 12 11 12 12 13 14 16 17 18 20 21 23 24 25 25 25 25 24 24 26 27 27 26 26 25 27 29 28 27 26 26 26 26 25 25 24 23 22 22 21 21 21 21 21 20 19 18 16 15 17 17 16 14 14 13 11 11 10 9 7 6 5 3
3 3 3 5 5 6 6 7 6 5 6 6 7 6 7 7 6 2 4 8 6 9 10 8 9 9 9 8 10 14 14 15 16 16 14 13 14 14 14 14 16 18 20 21 21 22 24 26 27 28 27 26 26 27 27 27 26 26 25 25 28 29 30 29 29 29 28 28 27 27 26 24 22 21 20 20 21 22 21 20 19 17 17 17 18 18 16 15 13 12 12 12 10 8 7 6 4
3 4 4 5 5 7 7 9 8 6 5 4 5 7 7 7 4 2 3 7 6 8 9 9 10 10 12 11 10 11 10 10 11 14 14 13 15 16 16 15 16 17 18 19 21 22 24 26 27 28 29 28 28 28 28 28 27 25 25 26 27 29 31 31 31 31 30 29 29 28 27 25 22 20 19 19 21 23 22 21 20 18 18 18 19 20 19 17 15 15 15 13 11 9 8 7 5
1 4 6 6 6 7 8 9 5 5 5 4 5 7 7 6 5 4 4 7 7 8 9 12 12 10 11 12 11 11 9 9 8 9 11 13 15 15 16 16 16 16 16 18 21 22 23 24 26 28 29 30 29 30 30 29 29 26 25 26 27 28 29 31 31 32 31 30 29 27 26 25 23 22 21 21 22 23 22 22 21 20 20 20 20 21 21 19 18 19 17 13 12 11 10 9 7
3 5 6 6 7 8 8 8 3 4 4 5 6 6 6 7 8 7 8 11 11 10 11 14 14 12 12 12 10 10 9 9 8 9 11 13 14 15 15 15 15 16 17 19 20 20 21 23 25 27 29 30 31 30 30 30 30 30 27 25 25 27 28 29 30 31 32 30 29 28 26 25 24 25 24 23 23 23 22 22 21 20 21 22 22 22 22 20 20 20 17 13 13 13 12 12 10
5 4 5 8 9 10 9 7 4 3 6 6 5 6 7 9 8 7 9 13 14 12 12 14 15 14 13 11 10 10 10 9 10 13 15 15 16 17 16 15 15 16 16 18 20 19 20 21 23 26 28 30 32 31 31 31 31 31 30 27 26 26 27 28 28 29 30 30 30 29 28 26 25 26 26 25 24 23 23 22 21 20 21 22 22 22 22 21 20 19 17 15 15 15 15 14 11
6 5 6 6 7 8 8 7 6 6 7 6 5 8 10 10 9 8 12 15 16 13 11 13 13 13 12 10 10 9 9 10 11 14 16 16 16 17 17 16 16 17 17 19 20 21 21 21 23 26 28 30 31 32 32 32 31 31 31 30 28 27 28 29 28 28 28 28 29 30 30 28 26 27 28 26 25 24 24 23 21 21 22 22 22 22 21 21 20 19 18 17 18 18 16 14 12
3 4 5 5 6 7 8 9 10 9 7 4 6 10 11 9 8 9 13 15 15 12 10 11 12 11 10 8 8 8 8 9 10 13 14 13 14 15 16 17 17 18 20 19 19 20 21 21 23 25 27 28 30 32 33 33 32 32 32 32 30 29 29 29 28 28 28 28 29 30 31 30 28 28 28 27 26 25 25 24 22 21 22 24 23 22 22 22 21 21 20 19 20 19 17 15 13
3 5 7 8 9 9 9 11 13 11 9 7 8 12 12 7 5 7 11 13 12 10 9 9 9 9 8 8 8 8 8 9 10 10 9 8 9 12 14 15 17 18 19 18 17 18 19 20 22 24 25 27 29 31 33 34 33 32 33 33 32 31 30 30 28 27 28 28 29 30 31 31 30 29 28 27 26 25 26 25 23 22 23 24 24 23 25 25 23 22 21 21 21 19 17 15 14
5 6 8 9 10 10 11 13 13 9 7 7 7 11 13 7 5 10 14 13 9 8 10 8 7 7 7 9 9 7 6 8 10 8 7 8 9 10 10 11 14 17 17 16 16 15 16 19 21 22 24 25 27 29 30 32 32 32 31 32 32 32 32 31 30 28 28 29 29 30 32 32 31 29 28 27 26 26 27 26 24 24 25 26 25 25 26 25 23 22 21 21 20 19 17 16 15
4 4 6 10 11 10 13 13 12 10 5 6 4 5 10 7 5 11 13 9 7 7 8 8 7 7 7 8 8 6 6 8 9 9 9 10 10 12 13 14 12 9 9 10 11 11 13 15 18 20 21 23 25 27 28 29 30 29 29 29 30 31 31 32 32 30 29 30 29 30 31 33 33 31 29 28 27 28 28 27 27 26 26 27 25 25 26 24 23 22 21 20 20 19 18 17 15
3 4 5 8 8 7 11 9 7 7 3 9 7 2 7 9 7 8 8 4 5 7 9 9 7 6 7 6 6 6 7 6 9 15 21 23 23 25 26 27 25 23 21 17 12 8 10 11 13 16 18 21 23 24 25 25 26 27 26 27 27 28 29 30 32 31 30 30 30 31 31 33 34 33 31 29 29 29 29 29 28 28 27 27 26 26 26 25 23 23 23 22 21 21 20 19 18
5 6 5 5 4 4 8 4 5 4 2 6 6 2 7 11 11 7 7 7 8 10 12 11 7 6 7 5 6 6 5 12 19 25 27 27 28 27 28 27 25 25 25 23 21 14 8 9 10 12 14 17 19 21 23 22 22 24 23 24 25 25 27 28 29 30 29 29 30 31 32 33 34 34 33 31 30 30 30 30 30 29 28 27 27 27 27 26 25 25 25 25 23 22 22 20 19
4 5 4 4 3 5 7 3 8 5 2 4 6 2 6 9 12 8 7 9 10 11 14 12 8 7 7 6 5 5 10 17 23 27 28 27 27 27 26 26 24 23 24 22 22 20 12 7 7 9 10 12 15 17 19 19 17 19 20 20 21 22 23 24 25 26 27 27 28 29 31 33 34 34 33 32 31 31 31 31 30 30 30 29 28 28 28 27 27 27 26 26 26 24 22 21 20
4 4 4 5 5 5 5 1 7 7 3 3 6 3 4 5 10 13 11 11 11 11 13 12 9 7 6 5 4 9 11 14 18 24 28 28 28 27 25 26 24 22 22 21 20 21 19 16 11 4 6 6 10 12 14 17 14 13 15 16 17 18 20 21 22 22 23 24 26 28 29 31 32 32 32 31 31 32 31 31 30 29 30 30 29 29 29 28 28 28 26 26 27 25 23 21 20
3 4 4 5 5 4 4 2 2 7 6 4 7 6 6 6 9 15 16 13 11 10 12 11 8 6 5 5 9 12 11 12 13 19 26 28 28 27 26 25 25 24 23 22 21 20 19 19 16 7 2 3 5 7 8 11 12 10 11 12 13 14 16 18 18 18 20 21 22 24 25 27 30 31 31 31 30 31 31 30 29 29 29 29 29 29 29 28 28 28 27 26 26 25 24 22 21
5 5 4 5 6 5 6 6 2 2 4 5 6 7 8 8 10 12 15 15 12 9 9 9 7 5 6 10 11 11 11 12 12 18 24 27 27 26 25 24 24 25 25 25 24 22 20 19 18 13 8 6 4 3 3 5 8 9 9 9 10 11 12 14 16 16 16 18 19 19 21 22 26 28 30 29 28 28 29 28 27 28 29 29 29 29 28 27 27 27 27 26 25 24 23 23 22
9 8 6 6 6 5 6 9 8 4 5 5 6 7 6 7 9 9 13 16 11 8 9 9 5 6 10 11 10 10 12 11 12 18 23 24 26 25 24 25 24 25 27 27 27 27 25 22 20 19 14 9 6 3 1 1 3 5 6 7 8 9 10 11 13 14 14 15 17 17 18 19 21 25 28 29 28 27 27 27 26 26 27 28 30 30 29 29 29 28 27 27 26 23 22 22 23
10 8 7 7 6 6 7 10 8 2 0 5 5 6 7 7 9 11 14 14 10 10 9 4 7 9 10 10 10 11 11 10 12 17 21 24 25 25 24 24 24 26 28 29 29 29 28 26 24 24 20 14 11 9 6 3 1 2 3 4 6 7 8 9 10 12 13 12 13 15 16 17 18 21 26 29 30 28 27 27 26 25 25 27 28 29 29 28 29 28 27 27 27 25 22 23 25
8 6 5 6 5 7 8 9 9 1 3 4 4 6 8 9 12 14 13 10 9 7 3 8 12 10 9 10 11 10 9 8 10 15 19 23 24 24 24 24 25 26 27 29 29 29 29 28 27 26 23 21 18 14 12 10 7 5 5 4 2 2 3 5 8 9 12 12 12 13 14 15 16 18 22 27 29 29 29 28 27 27 26 26 27 27 27 26 27 28 28 27 27 27 25 26 29
6 5 4 4 5 7 7 7 5 2 2 3 5 6 7 11 15 15 13 8 2 6 11 11 11 10 9 10 9 9 8 7 9 12 16 20 23 24 24 24 25 24 24 27 27 28 30 30 28 27 25 25 24 18 15 15 11 7 7 8 6 4 3 1 3 4 8 10 12 13 13 14 15 17 19 22 26 28 29 30 29 29 29 28 28 28 27 26 27 28 29 29 28 26 24 26 32
4 4 3 5 5 4 4 3 1 2 2 4 5 6 6 10 14 12 12 5 8 13 14 13 11 11 10 9 9 8 8 7 9 10 12 16 20 23 24 24 23 22 23 27 28 28 29 29 28 27 26 26 25 21 17 16 13 10 9 8 7 6 5 3 3 4 5 7 10 11 12 13 14 15 17 19 22 25 28 29 29 30 30 29 30 30 30 29 30 30 31 31 30 26 23 25 32
5 5 5 6 7 6 5 3 3 3 3 4 3 5 4 7 9 8 7 3 12 10 12 13 9 9 10 9 9 8 7 7 9 10 10 13 18 21 23 23 23 23 25 27 29 29 29 28 27 27 27 26 26 23 19 18 16 14 13 12 11 10 8 7 6 5 5 6 7 10 10 12 13 14 16 17 19 22 25 27 29 29 29 28 29 31 32 32 32 33 33 34 33 31 28 26 29
5 5 6 7 6 5 4 4 5 4 4 2 2 2 3 3 5 7 7 2 9 7 10 12 8 9 9 8 8 7 6 7 9 10 10 13 16 18 21 23 24 25 25 26 28 31 30 29 28 28 28 27 27 24 20 20 20 19 18 17 16 15 14 12 10 8 6 5 4 6 8 9 10 12 14 15 17 19 22 25 27 28 27 27 28 29 31 32 32 34 35 36 36 36 33 27 28
4 3 2 2 0 1 2 3 1 1 3 2 3 0 4 4 6 8 9 4 7 7 8 10 8 8 8 7 7 6 6 6 8 9 10 12 15 16 19 23 24 24 24 25 28 32 33 31 30 29 29 29 27 25 22 22 21 20 19 18 18 18 18 16 14 12 8 6 6 6 7 9 9 9 10 12 15 17 19 21 24 26 26 25 26 28 30 31 32 33 35 37 37 37 35 30 30
3 3 2 3 1 1 1 0 2 3 3 4 4 4 5 6 7 8 11 7 7 8 7 9 8 8 9 8 8 6 6 6 7 8 8 10 14 16 18 20 21 21 22 25 29 32 34 33 32 31 32 31 28 26 24 23 22 20 19 18 17 17 16 15 14 12 10 8 7 7 8 9 9 9 9 9 12 14 16 18 21 24 25 25 24 26 29 30 31 31 33 36 37 37 37 34 33
2 2 0 2 2 0 1 2 4 3 3 4 5 6 4 6 6 7 12 10 7 8 8 9 9 8 9 9 8 6 5 5 6 6 6 9 13 16 17 18 20 21 23 26 29 32 34 34 34 33 34 33 31 28 26 24 23 21 20 19 17 16 15 13 12 11 11 10 9 7 7 8 9 9 9 9 10 12 14 16 18 20 23 25 25 24 26 28 30 30 32 34 36 37 37 36 35
2 2 1 1 2 3 4 5 4 2 3 5 6 7 4 5 5 5 9 8 6 6 6 8 8 8 9 8 7 6 5 5 5 6 7 11 14 15 16 18 20 22 23 26 29 32 34 33 34 34 33 32 32 31 30 28 25 23 21 20 18 17 15 14 13 12 12 12 11 10 9 8 8 9 9 9 9 10 12 13 15 18 20 23 25 25 25 27 29 29 30 32 35 37 37 36 35
2 1 1 2 4 4 4 4 3 1 4 7 9 12 8 3 5 3 2 4 9 9 6 7 8 8 9 7 6 5 5 5 5 6 8 11 13 13 14 16 18 21 24 27 31 33 33 32 32 32 32 31 31 31 31 31 29 27 24 22 20 19 17 16 15 16 15 14 13 13 11 10 9 9 9 10 10 10 11 12 13 15 17 20 23 25 26 27 28 29 29 30 33 35 37 36 35
1 1 1 3 3 2 2 1 3 2 5 6 6 11 12 5 4 2 5 5 10 11 9 10 10 9 8 8 7 6 5 5 5 5 6 8 9 10 11 12 15 21 26 28 29 30 31 30 30 31 30 30 29 30 30 31 30 29 28 25 23 21 19 18 18 17 17 16 16 15 14 12 12 11 10 11 11 11 11 11 12 13 15 17 20 22 25 26 27 28 29 29 30 33 36 36 36
2 2 2 2 2 0 2 1 2 3 5 4 4 1 6 6 6 4 6 7 4 6 8 10 10 9 8 7 7 6 5 4 4 4 5 5 5 6 7 12 17 23 25 25 25 25 27 27 28 29 28 27 27 27 28 29 30 30 28 28 26 24 22 22 21 20 19 18 17 17 16 15 14 13 13 13 13 13 12 12 12 13 14 16 18 20 22 24 26 27 28 29 30 31 33 36 38
5 4 4 4 1 2 3 3 3 4 4 2 6 6 1 2 4 3 6 7 7 10 11 10 10 9 8 7 7 6 5 4 4 5 5 3 2 4 9 15 20 22 21 21 21 22 23 24 26 26 25 25 25 25 26 27 27 28 27 27 26 25 24 24 24 23 23 21 20 18 18 17 16 15 15 15 14 14 13 13 13 13 15 16 17 19 20 22 24 26 27 29 30 30 31 34 37
6 5 4 4 3 3 4 3 3 3 2 2 2 2 1 2 0 3 8 8 8 10 10 10 10 8 7 7 7 6 5 4 4 5 4 3 5 10 15 18 18 17 17 18 19 20 22 22 22 23 23 23 23 23 24 24 24 25 25 25 26 25 25 24 24 24 24 24 22 21 20 19 18 17 16 15 14 14 14 13 13 15 17 17 18 19 20 21 23 25 27 28 30 30 30 32 35
3 1 2 2 3 3 3 4 4 2 2 3 2 2 4 1 4 5 7 8 9 9 9 9 9 7 7 6 6 6 4 3 4 5 4 5 10 14 16 16 15 15 16 17 18 19 20 20 20 21 21 21 22 22 22 22 22 23 24 24 25 25 25 25 24 24 23 23 23 23 23 22 21 20 18 17 15 14 14 14 15 17 19 19 18 19 20 21 22 24 26 27 29 30 31 31 33
1 2 1 3 2 2 1 4 3 2 3 4 3 4 4 1 3 5 7 8 8 8 8 9 8 7 7 6 5 4 4 4 5 4 4 6 10 13 14 14 14 14 15 17 17 18 18 19 19 21 22 22 22 21 21 21 21 21 23 23 24 24 24 25 24 24 24 24 24 23 23 22 22 22 21 20 18 16 15 15 17 19 19 19 19 19 20 21 22 23 24 26 28 29 31 32 31
3 1 2 1 2 1 1 2 3 4 5 5 5 6 5 3 1 3 6 7 7 7 7 8 7 7 6 5 4 4 4 4 3 3 4 6 9 10 11 12 12 12 13 14 15 15 15 16 18 20 22 23 23 22 22 21 21 21 22 22 23 23 23 23 23 24 23 24 25 25 25 24 23 22 22 21 20 19 17 17 17 18 19 19 19 18 19 20 21 23 24 25 26 27 29 31 31
3 2 1 1 1 2 1 2 2 5 6 4 5 7 6 4 2 1 4 7 8 7 7 7 7 6 5 5 5 4 4 3 2 3 3 5 6 7 8 8 9 10 10 11 11 12 13 13 15 17 19 21 21 21 21 21 21 21 21 22 22 22 23 23 24 24 24 24 25 25 26 26 25 24 23 22 21 20 19 18 18 18 19 19 19 19 19 20 20 22 23 24 25 26 28 30 31
3 2 2 1 2 2 2 2 2 4 6 5 4 6 5 3 2 2 3 8 9 8 7 6 6 6 5 5 5 4 4 2 2 2 1 2 4 5 5 6 6 7 8 9 10 11 13 13 14 14 15 17 19 20 19 19 19 19 19 21 22 22 23 23 24 25 25 25 25 25 26 26 26 26 25 25 24 23 21 20 19 18 18 18 19 19 20 20 21 22 23 24 24 25 26 28 29
0 1 1 1 1 2 2 2 2 3 4 4 5 6 4 1 2 3 5 7 7 7 7 6 5 5 4 4 5 4 4 4 3 3 3 2 3 4 5 4 4 5 6 6 8 10 12 13 15 15 14 15 18 18 18 17 17 17 17 18 20 20 21 22 23 24 25 25 25 25 26 26 26 26 26 26 26 25 24 23 21 20 19 18 18 18 19 20 21 22 23 24 24 24 26 27 28
0 1 3 4 2 1 2 4 4 3 3 4 5 7 5 1 2 3 6 5 5 7 7 6 5 5 5 5 5 5 5 5 4 4 3 3 3 3 4 4 4 5 4 4 4 6 9 10 12 13 12 13 15 17 17 17 16 16 16 17 18 19 20 21 21 22 23 23 24 25 25 26 27 27 27 26 25 25 25 24 24 22 20 19 18 17 18 19 21 23 24 25 25 25 25 25 26
Wind_Direction
357 341 335 325 311 308 298 271 278 254 199 248 291 69 84 59 281 338 33 45 67 71 54 351 320 321 289 300 297 303 288 264 284 346 280 178 147 144 180 202 173 159 169 183 189 183 187 187 186 184 179 176 177 180 180 182 181 184 186 189 190 185 185 183 175 168 166 165 163 163 163 164 159 162 163 164 171 175 177 175 169 155 153 165 159 146 137 128 118 120 113 132 163 84 58 58 58
15 330 316 306 293 293 310 303 309 282 235 248 30 50 138 109 55 37 33 27 34 44 39 338 316 330 291 279 273 294 275 225 215 27 110 143 129 148 198 206 173 164 166 185 192 182 188 188 188 188 182 179 179 183 182 185 185 189 193 193 192 184 184 184 177 173 172 172 173 174 173 176 172 176 175 176 184 184 186 185 172 157 162 168 153 145 134 125 117 111 102 129 153 100 44 16 24
23 303 298 288 266 241 283 282 260 307 313 28 57 41 31 23 40 39 28 46 48 36 9 277 244 295 262 245 261 290 274 255 102 44 111 140 121 155 201 190 163 166 168 187 195 183 190 189 190 191 185 182 181 184 183 187 189 193 198 192 188 183 183 183 180 179 180 181 181 181 183 186 182 179 178 179 181 176 178 178 170 160 165 164 156 145 127 119 109 103 110 107 103 93 336 322 331
42 15 304 288 260 215 261 259 253 305 312 7 71 73 68 41 37 43 29 58 91 75 339 303 124 191 241 262 310 323 274 24 71 50 106 128 97 159 192 176 157 165 172 184 198 187 192 192 192 193 188 185 183 186 186 188 190 192 198 191 185 183 183 184 185 186 186 188 185 186 191 194 188 183 179 172 166 165 164 168 167 162 165 158 150 139 127 121 110 117 139 105 99 79 320 318 323
22 0 291 291 302 228 299 294 276 274 295 5 62 64 52 36 26 33 8 33 106 85 353 339 345 206 224 292 303 316 330 43 64 50 83 112 115 157 200 176 155 166 178 177 197 193 194 196 194 195 192 189 187 189 190 191 190 192 197 193 188 187 187 187 190 192 191 192 191 193 199 200 192 183 178 166 163 165 161 168 170 163 162 155 149 140 134 126 119 136 136 130 125 257 305 315 320
335 296 251 271 271 120 347 281 276 264 12 33 15 10 24 25 25 12 340 13 100 98 47 352 331 316 271 256 192 240 358 56 59 54 87 123 133 161 218 169 156 170 183 174 194 197 196 201 197 198 195 192 192 192 194 193 192 194 196 195 193 194 193 192 193 195 195 196 196 200 204 206 199 183 176 168 167 169 163 162 164 165 163 157 155 148 141 133 139 157 136 218 212 248 293 311 315
306 293 219 244 260 113 272 271 278 281 40 52 24 1 2 11 30 3 338 6 89 107 70 355 14 330 273 249 210 236 151 111 139 104 113 133 127 165 180 156 161 173 187 176 189 199 200 205 201 201 198 195 195 195 198 197 195 194 196 197 196 198 197 196 196 197 199 199 199 205 208 206 201 184 176 175 173 176 174 168 162 166 172 168 169 169 170 164 174 213 200 199 166 251 297 312 317
287 292 124 267 268 180 227 266 267 259 109 86 72 21 1 12 45 7 330 326 279 110 151 168 81 307 259 50 243 169 107 110 124 133 148 163 157 198 182 156 167 175 191 182 185 200 205 208 204 204 202 199 198 199 200 201 199 196 198 199 199 201 200 202 201 200 200 202 202 209 214 207 196 183 184 189 185 183 187 192 181 174 187 201 202 190 194 221 248 227 201 173 184 266 304 321 344
245 221 25 327 284 240 237 248 246 247 54 76 60 10 54 31 52 44 320 315 312 17 150 132 116 240 327 342 273 110 104 124 124 138 156 184 216 227 179 165 172 178 191 185 186 201 206 209 208 207 207 204 201 202 203 204 203 199 200 202 202 204 204 206 207 206 202 204 208 210 215 207 192 184 194 199 198 200 205 210 199 195 201 218 227 214 205 216 226 202 182 202 236 280 313 343 58
213 186 330 299 288 272 259 250 251 27 63 88 104 55 55 41 29 18 296 308 306 325 131 116 137 229 309 316 282 128 145 148 121 142 165 152 205 206 181 171 174 182 189 185 189 203 206 207 209 209 208 208 205 204 205 206 207 204 204 205 205 206 206 207 209 211 206 206 211 211 210 204 192 189 200 207 211 217 222 219 213 220 219 224 236 238 232 216 205 196 194 237 256 290 328 32 79
239 182 142 331 280 262 283 349 3 341 335 346 101 78 63 64 12 289 265 287 299 297 195 131 145 249 287 279 280 125 142 142 128 151 160 148 175 169 181 181 179 185 191 189 191 203 209 207 207 210 209 210 209 207 208 208 210 210 209 209 209 210 210 209 209 211 210 209 210 211 209 203 196 195 203 212 219 223 230 230 228 231 225 231 239 233 229 218 211 204 220 243 259 296 345 83 77
284 216 127 295 284 281 335 2 327 330 324 306 84 81 59 80 352 291 328 326 323 317 298 117 146 312 316 284 251 134 124 119 141 166 171 163 181 170 181 195 190 187 193 197 194 199 210 211 207 210 211 211 212 209 209 210 212 213 213 214 214 215 215 213 211 211 212 211 211 211 210 205 199 199 205 213 223 228 234 237 241 234 218 231 238 216 213 211 208 201 227 239 249 266 187 89 76
271 304 357 268 291 303 332 335 303 323 311 325 90 100 103 66 291 313 348 328 312 310 357 60 7 11 305 283 230 141 133 144 167 181 176 164 193 192 180 194 206 194 196 205 202 200 207 216 212 212 212 212 213 211 211 212 213 214 217 218 218 220 221 220 215 213 213 212 212 211 209 205 201 205 212 218 225 234 237 238 248 230 202 215 219 208 203 201 207 205 226 230 229 224 176 105 90
300 331 352 290 315 304 296 283 292 316 300 74 93 140 127 313 0 352 338 305 303 310 84 27 14 35 279 271 251 142 179 191 185 183 171 173 200 216 186 188 213 202 200 212 210 205 206 215 219 216 215 215 215 213 212 214 215 216 219 222 222 224 225 224 219 216 216 213 212 211 207 203 205 211 218 223 228 236 237 240 246 209 189 205 205 202 199 196 204 207 220 219 212 213 175 141 123
320 332 355 287 299 293 260 245 292 332 316 86 116 141 116 258 168 303 291 283 297 60 70 250 160 149 288 286 274 168 185 190 183 184 181 194 206 218 202 193 213 207 203 215 214 209 206 211 219 221 219 218 216 212 213 214 216 219 221 223 223 225 226 225 222 219 218 216 213 209 204 202 207 211 218 226 229 235 237 241 241 202 189 201 201 199 199 196 200 207 213 210 210 207 179 163 146
333 327 347 265 281 287 263 244 272 265 314 96 151 131 43 288 134 184 294 319 303 324 315 263 179 218 277 280 274 256 186 198 196 208 207 216 215 215 219 210 217 216 209 213 215 213 209 208 213 222 222 219 215 211 213 214 217 219 221 223 223 224 225 223 220 220 219 216 213 208 204 205 209 211 218 228 231 235 239 243 243 211 191 195 201 199 197 195 198 204 200 200 214 205 186 178 160
356 331 263 261 263 266 269 277 268 268 333 69 174 156 23 317 85 138 9 0 284 288 277 260 238 230 244 250 260 266 226 218 211 213 207 213 217 209 223 224 219 222 220 218 217 213 211 209 209 216 220 218 214 211 213 217 220 221 222 222 222 222 223 221 218 218 215 212 211 208 209 211 215 219 224 230 233 236 241 243 243 225 196 191 201 198 195 196 195 195 186 196 215 203 189 182 168
216 222 221 248 247 263 340 331 329 0 339 337 296 334 348 332 344 80 13 298 262 275 273 267 262 242 239 241 250 253 229 224 216 208 207 205 206 201 213 220 218 222 226 226 222 215 213 213 210 210 215 217 212 209 212 217 221 223 223 222 221 221 221 219 215 214 211 210 211 210 212 217 222 226 227 230 233 236 240 241 241 233 206 193 200 198 194 195 193 188 180 198 211 198 194 191 171
220 235 241 251 254 281 324 317 329 352 324 321 321 343 354 340 335 0 297 291 293 289 284 282 278 260 249 241 242 240 223 222 218 212 215 209 204 204 210 212 215 219 223 227 228 221 217 216 212 209 211 214 211 209 210 213 218 221 222 223 222 219 219 217 214 212 210 211 214 214 215 219 223 226 228 231 234 235 237 238 238 235 215 199 199 199 195 193 191 184 181 196 201 196 205 198 172
213 218 249 252 268 294 309 311 324 332 328 329 325 354 347 314 314 320 288 292 290 278 278 282 281 286 300 294 264 251 231 223 218 212 217 223 222 223 225 218 214 218 224 230 233 227 220 218 217 214 211 210 210 209 209 210 214 220 221 222 222 220 218 217 214 213 212 213 216 218 219 220 222 225 229 232 233 234 233 233 234 232 219 203 199 200 196 192 189 185 189 195 193 196 209 203 184
201 189 233 261 296 310 305 310 325 342 1 4 332 335 313 299 307 295 290 289 271 262 267 275 282 299 312 316 311 296 275 256 233 213 214 225 232 236 240 239 233 232 232 229 228 227 224 221 219 216 212 209 210 208 209 209 210 216 220 220 221 221 220 219 217 216 215 215 218 221 222 220 219 221 226 228 227 228 227 226 227 225 217 204 199 202 199 194 190 192 198 194 189 197 205 207 202
240 233 242 263 288 291 288 302 340 22 4 336 309 302 298 306 305 273 262 265 258 259 269 276 281 288 292 295 300 299 291 285 268 236 227 231 239 243 244 246 247 244 235 222 222 227 227 224 221 218 214 211 211 209 209 209 208 211 216 218 218 219 221 222 221 219 218 217 219 221 222 219 217 218 220 221 220 221 223 222 222 219 213 205 201 204 204 201 199 201 203 194 193 202 205 208 206
211 248 255 266 274 277 287 300 341 39 332 301 289 291 302 299 287 274 259 256 255 258 266 273 275 273 274 279 285 285 277 272 267 258 252 248 251 254 250 245 245 244 236 224 224 229 226 225 223 220 216 212 212 211 209 210 210 209 211 213 216 217 218 222 223 222 221 220 219 220 221 218 214 214 216 217 215 217 222 223 221 216 210 206 202 204 207 207 207 208 206 198 201 206 210 210 205
219 248 270 276 278 278 285 297 312 326 295 281 281 287 286 277 276 277 264 262 262 260 262 268 274 276 273 267 265 271 274 269 263 261 260 257 256 258 257 249 243 244 239 230 227 227 227 226 224 222 219 215 213 211 209 210 211 210 210 211 214 217 214 217 220 220 221 220 220 219 221 219 212 211 213 216 215 214 220 222 219 214 207 205 204 204 208 210 211 214 210 201 203 209 213 212 207
250 259 268 268 273 284 294 302 298 287 275 270 275 273 264 263 270 273 268 268 267 262 259 262 270 274 269 263 262 264 268 271 270 268 266 263 260 257 255 252 244 242 240 236 231 225 227 230 227 222 220 218 214 212 210 210 211 212 211 210 212 215 212 214 217 217 218 218 218 218 218 215 210 210 212 216 216 212 215 217 217 211 203 203 206 202 204 212 210 213 215 204 206 213 216 213 209
260 288 303 301 296 301 303 297 287 276 269 253 259 266 259 259 270 267 259 260 264 264 255 249 256 263 262 267 272 272 272 270 268 267 265 263 261 252 248 251 246 244 245 244 239 232 228 230 229 224 222 222 216 213 212 210 211 212 213 212 211 212 211 212 215 215 216 215 215 214 215 212 209 210 211 215 216 212 211 213 212 207 199 202 208 200 200 211 209 210 212 207 209 215 216 213 212
3 324 311 305 295 290 280 273 269 265 263 245 252 271 271 268 274 269 258 255 259 265 264 249 243 254 266 278 278 278 278 275 277 278 275 273 269 258 251 250 249 252 257 254 251 245 235 231 231 229 226 224 219 215 214 213 212 213 214 213 211 211 211 211 212 214 213 212 212 212 213 211 210 210 211 215 217 212 208 209 207 203 200 204 209 204 202 210 211 210 211 209 212 215 215 214 213
6 332 312 294 285 280 268 262 259 253 245 219 229 274 281 275 242 249 259 261 261 263 272 268 253 255 266 278 282 284 278 282 297 302 291 281 282 278 270 264 257 255 261 264 264 259 249 239 234 233 229 225 221 218 218 216 215 215 215 214 213 212 211 210 209 211 212 211 211 212 212 210 210 210 211 214 216 211 207 206 204 202 202 205 209 207 207 211 211 211 211 211 212 213 214 213 212
347 322 301 283 279 272 262 260 251 242 216 147 133 298 288 272 236 251 257 255 263 272 278 280 276 275 278 289 298 298 286 289 305 322 329 332 346 358 5 5 351 327 312 301 281 262 257 252 242 236 232 227 224 222 221 220 218 218 218 217 216 214 212 211 209 210 211 210 210 211 211 210 209 208 209 212 213 209 207 206 205 204 205 207 209 208 209 212 210 209 208 207 207 209 210 208 207
286 270 265 278 291 274 263 260 232 224 174 118 109 305 281 281 278 283 288 290 305 301 290 286 290 291 287 288 290 290 300 330 6 20 21 22 24 24 23 20 17 14 9 2 345 299 264 263 255 242 233 229 228 225 223 223 222 220 221 221 219 216 215 214 213 212 212 210 210 211 211 210 209 208 209 211 211 210 209 208 207 206 206 208 210 210 211 210 208 207 205 203 203 206 208 204 203
265 264 245 258 279 267 267 252 147 151 189 135 126 229 268 287 288 290 317 331 328 309 292 291 300 298 295 293 292 304 1 35 37 32 28 26 25 25 23 19 18 17 14 10 5 350 302 270 264 247 236 233 231 229 226 226 227 223 223 223 221 220 218 218 216 214 213 211 211 212 212 211 210 209 209 211 210 211 211 210 209 207 208 210 211 213 213 210 208 208 205 202 199 202 207 203 202
253 266 265 240 226 263 283 248 156 158 237 165 139 209 252 273 289 300 321 317 311 298 288 293 299 293 298 298 310 3 40 42 36 28 22 21 21 23 23 22 20 19 18 16 14 13 4 332 297 260 245 243 239 235 229 227 230 226 224 226 225 224 222 220 219 217 216 216 215 215 214 213 211 208 209 211 211 212 213 212 211 210 210 210 213 214 214 212 210 209 208 206 201 199 203 201 200
237 234 256 253 236 260 287 245 169 153 115 194 188 220 259 272 298 303 300 292 288 284 282 289 292 287 292 300 14 46 46 36 30 24 19 16 16 19 22 23 21 21 23 24 22 22 21 18 8 293 246 260 252 247 237 230 231 229 225 227 227 226 225 223 222 222 221 221 220 220 219 215 212 209 209 213 214 214 216 215 213 212 212 212 214 215 215 214 212 210 208 208 207 203 202 198 195
250 241 253 264 266 281 299 340 133 137 131 210 220 221 250 262 282 288 287 284 278 276 284 292 297 301 318 22 55 57 50 40 31 21 17 14 13 16 19 21 22 24 27 31 31 30 29 28 27 23 345 333 281 262 253 236 233 232 226 226 228 227 227 224 224 226 225 225 224 225 225 221 217 213 213 217 218 217 217 217 216 215 215 214 216 217 216 214 213 213 210 207 208 207 203 197 192
266 274 283 290 294 312 309 306 311 169 185 217 226 229 244 257 263 273 283 284 280 281 290 293 300 330 24 55 62 57 52 48 35 25 22 17 14 14 16 19 22 25 28 33 35 36 36 34 35 35 20 5 342 288 276 238 230 235 232 230 230 228 228 225 223 226 227 226 227 228 229 227 222 218 218 220 220 218 218 218 219 218 217 216 216 217 215 213 212 213 211 207 205 208 209 201 194
263 272 281 290 294 298 288 284 291 302 275 251 246 258 270 276 275 277 277 278 285 290 285 288 315 30 57 63 61 56 55 50 35 30 29 24 20 17 17 20 23 28 30 33 36 36 36 35 38 38 31 25 23 19 352 256 229 233 235 237 239 233 233 231 225 226 228 227 228 230 233 231 226 222 221 222 222 221 220 221 221 221 221 218 217 217 214 213 211 210 211 208 201 201 207 202 195
259 269 275 278 285 284 277 282 292 19 30 262 271 286 286 286 283 275 271 277 289 283 280 320 52 65 66 65 61 58 57 48 37 34 34 31 27 23 22 24 27 31 33 35 36 35 35 36 35 34 34 36 33 31 34 28 355 302 264 250 250 246 244 241 234 230 230 231 231 232 235 234 229 226 224 224 224 223 222 222 223 224 223 221 222 221 219 217 214 211 210 208 202 196 195 196 195
275 280 283 286 282 278 280 285 289 59 122 272 301 300 291 292 282 272 272 279 287 293 353 63 71 70 65 65 61 57 57 47 38 34 33 32 29 27 26 27 29 31 34 37 37 36 37 39 36 32 34 37 35 32 37 38 33 25 19 18 350 279 255 241 238 238 236 238 240 239 240 239 236 233 230 228 226 224 224 223 223 225 225 223 225 225 223 220 216 212 208 205 203 199 195 194 193
287 290 292 285 266 273 282 277 280 93 134 276 310 300 293 290 282 279 278 273 308 50 71 74 73 69 61 59 55 50 50 40 38 35 30 30 30 30 29 30 31 31 35 40 42 41 40 40 39 36 35 36 35 34 35 33 31 35 31 27 31 38 53 120 214 229 232 234 239 241 243 245 243 241 238 234 231 228 227 226 226 227 227 225 224 223 222 220 216 214 211 207 202 198 197 196 197
252 256 262 265 253 258 271 251 173 89 195 246 285 288 287 283 280 284 278 246 90 77 81 78 75 79 72 65 58 47 40 32 40 39 26 27 30 31 31 30 31 31 35 40 43 44 42 41 41 40 39 39 37 35 37 35 28 28 25 21 23 22 21 358 301 282 259 244 244 248 249 249 250 250 246 241 237 234 232 230 230 231 231 228 226 224 221 219 218 214 213 212 204 196 195 197 201
245 229 222 242 245 244 256 290 350 347 284 258 286 295 271 264 275 297 290 141 100 90 91 85 80 84 79 73 65 51 42 33 40 41 26 24 27 30 30 30 32 32 33 39 43 46 46 44 43 42 42 42 41 39 41 43 38 32 29 28 27 22 13 355 336 324 306 286 271 269 268 263 261 258 255 251 246 242 238 235 233 233 234 232 229 228 225 223 221 217 214 213 208 203 200 198 200
264 237 225 235 245 257 281 334 353 346 310 287 65 332 263 257 291 300 291 144 102 94 98 95 88 81 74 67 60 48 41 40 44 42 31 25 24 28 30 30 33 33 33 38 44 49 49 48 46 44 43 43 43 43 45 48 46 40 35 30 26 22 19 16 17 19 4 347 322 294 285 281 277 269 263 259 255 250 245 241 237 235 237 236 233 231 230 227 224 221 217 214 211 210 206 199 199
255 247 273 276 301 324 304 328 331 210 274 249 123 202 256 273 280 268 265 224 118 105 102 100 94 85 82 74 61 41 27 38 48 43 35 28 22 25 29 30 32 33 34 39 46 50 51 50 48 45 44 43 43 45 48 50 48 44 40 37 33 27 22 18 19 22 15 1 345 320 303 301 301 291 277 268 263 259 255 249 244 240 240 240 237 234 232 230 228 225 222 217 214 213 208 202 202
239 244 340 22 49 329 313 169 220 223 279 268 206 211 256 270 251 239 255 240 140 120 111 101 97 92 90 85 75 56 32 31 44 45 37 31 25 27 31 32 35 36 36 41 46 49 50 50 49 47 45 44 44 45 47 49 47 44 43 42 38 32 25 21 18 17 13 356 338 324 313 309 310 311 301 286 274 267 263 258 252 247 245 244 242 238 235 234 233 230 226 223 219 216 212 209 207
215 210 95 59 85 102 134 178 227 245 295 270 213 199 244 270 243 226 244 233 151 133 131 115 113 109 99 97 94 86 65 44 45 50 44 37 32 33 36 36 39 40 41 44 47 50 51 50 49 48 46 44 43 44 45 46 45 44 43 40 36 31 27 23 18 14 11 1 348 331 318 311 310 313 312 306 291 277 271 266 260 254 250 248 247 245 242 238 236 234 231 227 223 220 217 215 213
196 182 105 96 178 208 196 199 215 224 257 246 206 184 210 272 260 223 231 217 144 132 132 114 113 111 102 99 97 96 88 70 56 52 46 43 38 36 38 39 40 42 43 46 50 51 52 50 49 48 46 44 44 44 45 44 43 42 39 35 31 27 24 21 18 15 9 2 355 345 335 326 315 310 309 312 308 294 283 276 268 261 256 253 250 249 247 244 240 239 238 233 228 225 223 220 219
165 136 9 269 240 221 201 188 165 186 260 245 212 194 193 271 283 229 216 169 144 144 145 131 123 115 108 102 92 84 80 75 67 57 47 45 45 42 40 39 41 45 46 47 49 50 51 50 50 49 47 45 45 44 45 44 43 41 38 34 29 24 20 18 17 14 8 3 358 353 349 345 336 321 309 307 308 306 297 287 279 272 266 259 255 252 251 249 246 242 242 240 234 230 227 226 225
118 105 314 290 275 203 171 130 130 188 257 260 234 202 193 217 278 322 43 91 145 154 156 148 135 120 111 103 95 85 73 70 70 65 53 46 43 41 41 41 42 45 46 45 46 48 50 50 51 50 48 46 46 46 45 44 43 42 40 37 34 29 24 20 16 11 6 2 358 353 352 351 350 343 328 315 308 305 301 297 292 283 276 268 262 258 254 252 251 248 245 244 242 236 232 230 230
131 180 204 260 311 222 194 183 162 210 240 273 351 65 190 215 270 313 42 53 83 107 120 126 118 109 102 97 94 86 75 72 70 68 60 46 36 32 40 44 43 43 44 44 44 47 49 48 49 50 47 46 47 47 46 45 43 42 40 38 36 34 32 27 21 16 11 5 358 353 352 350 348 347 341 335 327 315 302 297 298 295 290 284 275 268 262 257 254 251 248 247 247 244 238 235 233
167 186 175 175 224 260 245 231 225 237 239 294 16 27 13 245 291 327 71 64 47 71 91 99 103 104 100 97 94 86 77 67 64 62 54 41 32 41 46 45 44 43 43 44 45 46 48 47 47 48 46 46 47 46 46 45 43 41 40 39 37 36 34 30 26 22 18 13 8 2 357 351 347 343 338 335 334 329 315 300 299 300 299 295 287 278 271 264 258 253 251 249 249 249 245 241 238
195 202 163 173 194 214 238 245 245 251 273 312 4 29 258 208 332 52 86 84 67 74 82 86 89 93 92 91 87 80 71 59 58 59 51 39 38 44 46 47 46 45 44 45 46 46 48 47 46 46 44 44 45 46 46 45 43 42 42 41 39 38 35 31 29 26 21 19 16 11 6 359 353 346 339 330 325 328 325 312 303 302 301 298 292 284 278 272 265 260 256 253 251 251 250 247 243
231 216 109 198 210 196 244 263 247 241 297 285 239 226 249 191 93 92 94 89 85 85 88 89 87 84 83 78 74 74 73 62 53 48 40 35 40 45 47 47 47 46 45 45 45 46 47 47 46 47 46 45 46 46 46 46 45 43 43 43 41 41 39 35 32 29 25 23 21 16 11 7 2 356 349 341 332 326 323 314 307 305 303 299 294 289 283 278 272 266 263 260 256 253 252 250 248
21 60 131 232 219 137 249 282 272 246 261 259 239 249 275 7 82 115 107 96 98 98 95 96 94 88 82 77 82 85 77 65 54 45 41 40 44 47 48 48 46 45 45 46 45 45 46 46 46 46 46 46 46 46 46 45 45 43 41 42 41 41 40 37 34 32 30 29 27 22 17 14 11 4 359 354 346 338 327 317 312 310 308 305 300 295 289 284 278 272 267 265 262 258 255 253 251
100 193 247 287 347 44 157 253 269 258 257 253 251 268 276 277 258 132 121 113 110 108 104 104 104 100 98 103 104 92 78 73 66 58 47 46 47 45 46 46 43 42 44 45 45 45 46 46 45 44 43 42 42 43 43 43 43 41 39 39 39 40 40 37 35 33 32 32 29 27 24 20 16 10 4 0 356 350 342 331 323 318 314 310 306 302 297 290 283 277 272 268 266 263 260 258 257
119 194 295 52 339 300 247 214 229 243 258 257 242 260 266 247 236 152 159 145 126 125 125 120 119 119 121 124 115 104 98 92 72 55 35 39 48 43 40 38 36 38 41 43 43 42 43 41 39 39 38 36 36 37 39 39 39 37 35 35 35 36 37 35 33 30 30 29 27 25 25 23 20 15 10 7 3 358 352 344 335 328 322 314 308 305 303 298 290 282 277 273 270 266 262 261 260
55 44 357 82 171 213 226 253 243 232 257 267 247 255 261 251 303 347 135 139 139 143 137 125 122 123 127 130 128 129 128 125 106 91 66 53 55 48 41 31 28 31 32 37 35 33 37 37 35 35 33 30 30 30 31 31 30 26 24 24 24 25 27 27 27 26 25 24 21 20 20 19 19 17 14 12 9 4 359 353 345 338 332 325 315 307 303 302 296 288 281 276 273 269 264 262 262
63 48 292 242 197 214 242 271 240 219 251 264 257 258 251 246 351 29 96 118 137 138 128 122 119 121 131 141 150 161 159 160 170 168 156 106 76 70 59 46 42 35 29 30 27 27 32 33 33 33 30 27 25 25 26 24 21 17 12 12 13 13 14 14 17 18 17 17 15 13 12 11 12 12 11 11 10 8 5 360 354 348 342 336 328 316 308 303 298 292 286 280 275 271 267 265 265
301 180 209 215 211 203 260 261 228 201 231 238 251 261 247 215 341 41 86 97 107 112 115 122 138 152 161 167 168 170 167 164 164 151 128 102 81 77 71 67 65 54 44 39 33 31 29 27 26 24 23 20 18 20 22 20 17 12 7 6 5 5 3 2 4 5 6 7 7 6 5 4 3 3 3 3 3 3 2 1 358 355 350 344 339 330 319 309 302 296 290 284 278 272 269 267 266